Theta_e
287 287 287 287 288 288 289 290 289 289 290 291 292 296 297 299 301 303 303 305 308 314 324 322 324 324 323 323 322 322 320 320 318 316 316 316 316 317
285 286 286 287 287 287 288 289 290 290 290 292 292 294 297 301 301 303 303 305 307 312 322 323 324 324 323 323 322 321 320 318 318 316 317 319 319 317
286 286 286 286 286 286 287 288 289 290 290 292 294 296 295 300 303 304 304 305 307 311 321 324 324 324 323 323 322 321 319 318 317 317 318 318 318 318
286 287 287 286 286 286 287 288 288 290 290 290 292 294 297 300 304 306 306 304 305 311 319 322 325 323 323 322 321 320 319 318 318 317 317 317 317 317
286 286 287 287 287 287 287 288 288 289 290 291 292 294 298 302 305 306 306 302 303 315 320 324 324 323 322 321 320 319 318 318 318 317 317 317 317 316
287 287 287 287 287 287 287 288 289 290 290 291 292 294 302 305 307 308 304 305 309 311 320 324 323 322 322 320 320 319 318 318 318 317 317 316 316 316
289 290 289 287 287 287 287 288 289 290 291 292 293 295 305 308 308 309 305 312 312 316 318 322 322 322 321 320 319 318 317 317 317 317 318 317 316 315
289 290 290 289 288 287 288 289 290 291 291 292 294 297 303 308 308 309 314 314 316 317 317 315 317 316 318 319 318 318 317 317 317 318 317 316 316 315
289 292 291 290 289 290 291 290 290 291 292 293 296 299 304 309 312 312 318 317 307 307 314 302 317 314 318 319 318 318 317 318 318 318 317 317 316 316
290 292 292 292 291 290 291 292 292 292 293 295 299 303 306 309 312 318 314 309 310 308 317 298 307 302 314 317 319 318 318 318 318 317 317 317 316 316
289 292 294 294 294 293 292 293 294 295 297 299 301 304 306 314 311 312 310 308 305 303 304 302 297 303 308 309 314 318 318 318 318 317 317 317 316 316
289 289 292 296 297 297 296 296 297 299 302 305 306 310 315 313 313 312 312 305 304 305 304 300 300 308 298 297 306 312 317 317 317 317 317 316 316 316
288 289 289 293 297 299 302 303 304 307 307 306 305 305 307 311 310 310 311 312 309 306 307 309 304 308 299 293 296 303 309 312 315 316 316 316 315 315
288 289 289 292 293 298 299 302 302 304 304 303 302 300 301 307 310 312 312 312 309 310 312 316 305 306 296 292 293 297 303 306 309 311 311 312 313 313
289 290 291 292 293 292 294 298 300 301 300 299 296 296 299 302 309 307 308 308 309 309 311 315 316 311 313 301 293 294 298 300 304 307 307 307 308 307
289 290 291 291 291 291 294 294 295 296 296 295 296 298 299 302 304 308 312 313 311 306 309 312 312 315 309 306 307 300 300 300 300 303 304 303 302 301
290 289 289 290 290 290 291 291 292 294 294 295 296 298 299 302 302 305 308 308 299 295 298 304 308 311 308 302 298 297 296 297 296 297 297 296 293 292
288 288 288 288 288 289 289 290 291 293 293 295 295 296 297 299 299 302 304 305 297 295 301 301 303 303 299 293 292 290 292 292 291 292 293 295 289 288
286 286 287 287 287 288 288 289 289 291 294 293 296 297 297 295 297 297 298 300 292 292 293 296 300 303 294 285 285 287 288 286 286 287 286 287 283 283
284 285 285 286 286 287 288 288 290 290 291 292 292 293 293 294 293 292 292 292 292 293 294 294 296 297 292 287 285 285 286 289 290 290 289 289 287 286
283 283 284 284 285 285 286 288 291 291 291 290 291 291 292 296 291 291 291 291 292 293 292 293 292 292 293 292 285 284 286 286 288 288 288 287 285 283
283 283 283 284 284 286 288 290 290 289 290 291 293 294 294 293 290 293 293 294 292 291 289 288 289 289 292 291 286 286 286 287 286 285 283 283 283 284
284 284 284 284 284 284 284 284 285 288 291 292 293 293 293 292 292 293 292 290 289 287 289 289 290 291 289 287 286 282 281 279 279 279 279 279 279 280
Wind_Speed
25 26 25 23 28 25 26 22 12 4 3 5 7 16 15 8 14 18 18 15 28 26 40 45 45 44 43 42 39 36 33 30 27 27 27 26 25 21
18 21 22 22 26 25 28 24 23 12 3 11 14 13 13 10 10 15 17 15 27 24 43 43 45 44 44 40 39 36 33 30 26 29 28 26 25 21
19 22 25 26 26 25 26 26 23 21 7 8 3 7 18 14 12 19 17 17 26 25 36 45 45 46 41 39 37 35 34 32 27 29 27 24 23 21
17 20 25 28 29 28 26 26 24 24 17 12 9 7 15 15 19 25 21 14 25 27 29 44 45 42 40 39 37 36 33 31 30 28 25 23 22 20
15 20 24 29 31 29 27 26 26 24 23 13 7 6 11 15 24 24 23 24 32 30 45 52 44 42 40 39 36 34 32 31 31 27 23 22 20 19
6 11 23 33 33 32 30 28 26 25 21 19 12 9 8 23 26 22 18 20 27 28 47 48 46 41 39 37 35 34 31 29 28 26 22 21 19 18
12 11 19 33 34 35 31 30 29 25 21 17 12 8 13 24 23 21 26 25 23 35 44 50 45 41 38 35 32 32 28 28 26 23 22 19 18 16
16 18 19 26 32 34 28 29 31 29 24 20 15 11 13 23 28 31 30 29 11 40 40 33 42 34 35 35 32 30 28 26 25 23 21 19 16 14
21 22 24 28 31 32 29 30 29 27 25 23 19 18 14 28 28 33 29 30 30 40 52 35 43 35 36 36 30 28 26 24 23 21 20 19 17 15
30 24 25 29 31 32 31 29 26 26 27 25 27 26 14 28 49 31 37 41 37 39 56 20 37 35 36 36 33 28 26 23 22 20 19 17 15 14
40 32 25 22 23 32 31 29 26 28 26 21 22 14 14 44 43 55 45 43 26 28 31 41 22 40 37 32 30 29 26 24 23 20 18 15 14 12
43 45 36 28 29 32 34 31 26 26 23 17 23 53 58 48 46 50 44 39 35 23 29 24 27 30 11 25 27 28 28 26 24 21 18 16 14 13
37 38 41 48 45 42 41 38 35 46 46 46 53 53 55 51 49 46 41 48 32 29 35 28 27 28 15 13 26 26 27 25 24 22 19 16 14 14
36 36 41 62 55 50 46 43 42 50 51 48 45 44 50 53 49 47 46 46 43 42 31 40 27 35 29 19 12 23 25 22 20 18 16 15 13 12
41 41 54 54 53 56 50 50 51 49 48 48 43 41 50 54 52 52 51 44 40 34 32 34 35 39 36 24 18 19 19 19 18 16 13 12 10 9
40 50 50 53 55 51 54 51 48 45 48 45 46 45 43 48 51 48 51 44 45 39 34 35 35 31 31 30 26 22 18 8 15 14 12 12 10 9
43 51 49 47 47 45 47 47 42 44 45 43 44 44 44 48 46 46 44 42 44 37 36 33 30 30 30 29 25 19 18 19 16 14 12 12 10 7
53 44 43 42 41 39 39 40 42 45 40 40 41 41 42 42 41 43 45 47 43 37 37 33 32 33 29 23 18 19 17 17 15 13 11 11 12 9
48 43 40 40 38 39 39 40 43 43 42 43 43 42 42 41 42 41 41 41 35 34 32 27 25 27 21 4 9 10 17 17 16 12 7 3 9 7
45 40 38 38 39 42 41 39 43 43 45 42 42 40 38 40 38 36 34 36 34 31 26 19 17 12 18 13 12 14 12 11 9 11 13 10 7 6
41 42 40 39 38 38 39 46 49 47 44 43 41 42 40 43 37 37 37 35 31 27 27 22 17 16 22 25 23 20 14 12 9 5 9 6 2 1
46 47 45 48 48 48 48 49 47 45 44 45 45 45 44 41 37 37 35 34 31 30 28 22 22 20 21 27 24 19 14 9 5 4 3 2 1 3
44 45 46 48 49 50 50 51 50 47 45 44 42 41 40 40 39 38 36 33 30 27 25 25 22 21 22 21 20 15 12 9 6 4 3 2 2 4
Wind_Direction
248 229 223 221 212 215 215 208 195 207 226 241 248 229 228 219 212 204 206 206 197 175 159 169 173 172 168 165 164 161 159 159 160 160 152 155 161 150
250 225 220 214 210 212 215 210 211 196 204 221 235 230 218 213 225 207 204 208 201 175 162 170 177 172 169 164 164 161 160 159 162 158 154 157 156 152
245 229 219 210 206 203 210 205 206 203 205 240 208 220 228 215 216 207 202 209 188 176 165 170 177 172 166 165 163 161 158 159 159 158 158 162 157 152
239 226 218 204 200 196 198 199 197 203 202 221 255 286 216 202 192 182 180 201 188 181 175 172 175 170 167 166 159 160 157 159 162 155 159 160 161 157
237 221 211 198 194 189 190 193 196 198 205 204 218 266 215 195 178 175 169 184 184 170 166 174 172 169 166 163 158 159 158 163 161 159 159 160 158 155
268 231 209 192 184 181 186 188 186 189 192 202 214 251 196 181 174 153 148 161 167 173 167 168 167 165 162 159 157 159 161 165 158 157 157 158 156 156
67 131 166 181 181 180 182 182 182 180 181 187 198 213 174 156 153 154 158 160 159 152 149 158 158 157 158 155 157 160 160 163 157 157 154 153 153 157
68 109 146 155 169 177 180 182 184 177 177 181 193 199 177 161 154 159 161 155 128 146 128 120 140 135 148 153 153 154 157 157 154 151 149 151 151 155
83 106 133 153 160 166 172 179 186 189 189 185 186 185 175 172 161 155 157 133 103 119 123 87 135 122 141 145 147 149 153 151 147 148 150 154 158 161
74 103 124 151 160 170 168 173 181 194 197 200 183 183 186 175 160 154 125 112 113 115 135 91 118 105 127 138 144 149 149 147 148 152 157 160 164 166
58 84 110 133 147 173 172 174 182 192 195 189 197 207 223 157 131 124 120 111 100 93 110 114 111 107 110 113 134 149 149 150 153 155 158 163 171 178
55 62 79 109 123 136 146 154 157 177 173 172 157 124 129 127 122 122 131 115 120 107 118 111 123 116 77 90 112 130 148 153 156 159 163 169 177 188
52 56 63 90 104 115 123 126 114 121 121 116 99 102 106 115 114 116 120 123 123 121 133 130 127 123 103 108 101 119 133 146 154 162 170 178 185 191
49 55 64 77 85 97 102 112 116 106 101 99 96 95 100 109 115 119 126 127 129 131 142 149 124 129 117 106 98 111 122 130 140 145 152 160 174 182
53 59 64 69 79 75 83 88 95 100 99 95 93 91 103 111 120 119 120 120 113 113 123 133 136 133 135 127 131 123 115 116 129 136 141 150 161 173
52 55 61 62 63 66 71 73 84 92 96 98 99 104 107 114 115 123 120 119 110 103 113 124 132 141 129 129 134 128 128 132 137 142 150 148 158 167
61 58 54 55 58 59 63 68 76 86 89 98 104 107 108 113 116 122 121 122 111 110 113 120 130 136 135 137 128 136 137 139 143 146 148 133 122 117
60 56 55 55 56 59 62 65 71 80 84 93 98 102 105 110 112 117 121 118 114 115 119 124 128 123 112 95 112 120 125 129 130 131 133 134 129 135
60 57 55 55 57 61 64 67 70 77 92 89 96 102 106 105 109 109 113 120 111 117 125 133 136 137 124 109 111 128 135 140 144 139 132 84 135 123
55 57 59 58 58 62 65 69 77 79 83 90 94 101 104 106 103 104 109 114 117 123 123 122 132 143 129 140 126 112 124 125 128 123 119 121 126 142
54 57 59 62 66 69 71 75 82 83 84 86 88 93 98 106 100 104 109 111 112 108 101 98 100 118 123 126 116 121 127 131 127 130 125 120 136 176
67 69 70 74 76 78 81 84 85 85 87 90 94 98 104 107 105 111 109 111 107 104 102 106 114 120 121 124 130 131 137 136 136 141 124 92 58 8
73 74 76 79 81 83 85 87 89 91 94 97 100 102 106 106 107 107 108 108 111 114 112 106 107 107 108 116 116 114 116 117 107 87 52 32 354 311